Location: Peebles
(55.6412°N, 3.1714°W)
Time: 20:57:42
(UTC+01:00)

deb AGENA D - Pass Details

Date: 11 July 2022
Orbit: 951 x 1019 km, 99.8° (Epoch: 17 August)

Event Time Altitude Azimuth Distance (km) Brightness Sun altitude
Exits shadow 01:24:38 - 145° (SE) 2,951 ? -12.2°
Reaches altitude 10° 01:25:02 10° 144° (SE) 2,804 ? -12.2°
Maximum altitude 01:31:16 65° 65° (ENE) 1,114 ? -12.2°
Drops below altitude 10° 01:37:30 10° 345° (NNW) 2,797 ? -12.1°
Sets 01:39:59 0° 343° (NNW) 3,743 ? -12.1°
